Regional Weather Roundup
Issued by NWS

Home | Current Version | Previous Version | Graphics & Text | Print | Product List | Glossary On
Versions: 1 2 3 4 5 6 7 8 9 10 11 12 13 14 15 16 17 18 19 20 21 22 23 24 25 26 27 28 29 30 31 32 33 34 35 36 37 38 39 40 41 42 43 44 45 46 47 48 49 50
000
ASUS43 KBIS 162210
RWRND

NORTH DAKOTA REGIONAL WEATHER ROUNDUP
NATIONAL WEATHER SERVICE BISMARCK ND
400 PM CST MON JAN 16 2017

NOTE: "FAIR" INDICATES FEW OR NO CLOUDS BELOW 12,000 FEET WITH NO
SIGNIFICANT WEATHER AND/OR OBSTRUCTIONS TO VISIBILITY.


NDZ001>003-009>011-017-162300-
NORTHWEST NORTH DAKOTA

CITY           SKY/WX    TMP DP  RH WIND       PRES   REMARKS
WILLISTON      FAIR      19  13  77 SW5       30.11R WCI  12
MINOT          FAIR      28  21  75 W7        30.03S
$$

NDZ018>021-031>035-040>046-162300-
SOUTHWEST NORTH DAKOTA

CITY           SKY/WX    TMP DP  RH WIND       PRES   REMARKS
BISMARCK       FAIR      27  17  66 NW8       30.07R WCI  19
DICKINSON      FAIR      21  14  74 W12       30.04R WCI   9
GARRISON         N/A     21  15  78 NW13      30.04R WCI   9
HETTINGER ARPT SUNNY     22  15  75 NW15      30.07R WCI   9
$$

NDZ004>008-012>016-024-026-027-054-162300-
NORTHEAST NORTH DAKOTA

CITY           SKY/WX    TMP DP  RH WIND       PRES   REMARKS
GRAND FORKS    CLOUDY    19  11  70 W6        30.04R WCI  11
GRND FRKS AFB  CLOUDY    21  12  67 NW8       30.04R WCI  11
DEVILS LAKE    FAIR      16  12  84 W5        30.02R WCI   9
$$

NDZ022-023-025-028>030-036>039-047>053-162300-
SOUTHEAST NORTH DAKOTA

CITY           SKY/WX    TMP DP  RH WIND       PRES   REMARKS
FARGO          CLOUDY    19  11  70 SW3       30.04F
JAMESTOWN      FAIR      17  11  77 W10       30.02R WCI   5
$$





USA.gov is the U.S. government's official web portal to all federal, state and local government web resources and services.